User: anonymous   Login
Location: Prague
(50.0830°N, 14.4670°E)
Time: 04:36:37
(UTC+01:00)
Language:

M-CUBED/EXP-1 PRIME - Orbit

View from above orbital plane
View from above orbital plane
View from above satellite
View from above satellite

Ground track
Ground track

The orbit data is extracted from the following two-line orbital elements,

1 37855U 11061F   21339.58283495  .00003875  00000-0  18755-3 0  9991
2 37855 101.7224 352.0220 0163144 281.3569  76.9356 15.08887058551977
Epoch (UTC): 05 December 2021 13:59:16
Eccentricity: 0.0163144
inclination: 101.7224°
perigee height: 427 km
apogee height: 652 km
right ascension of ascending node: 352.0220°
argument of perigee: 281.3569°
revolutions per day: 15.08887058
mean anomaly at epoch: 76.9356°
orbit number at epoch: 55197

The dashed part of the orbit path shows where the satellite is in the earth's shadow,  

DLR